Plymouth, MA

1:25 PM EDT on June 25, 2017 (GMT -0400)
Plymouth Municipal

Weather History for KPYM - June, 2013

Change the Weather History Date:

Wednesday, June 12, 2013

  Actual Average Record
Temperature  
Mean Temperature 62 °F -  
Max Temperature 72 °F 75 °F 94 °F (1984)
Min Temperature 55 °F 52 °F 39 °F (1972)
Degree Days  
Heating Degree Days 2    
Growing Degree Days 12 (Base 50)    
Moisture  
Dew Point 54 °F    
Average Humidity 76    
Maximum Humidity 94    
Minimum Humidity 53    
Precipitation  
Precipitation 0.00 in - - ()
Sea Level Pressure  
Sea Level Pressure 29.65 in    
Wind  
Wind Speed 8 mph (WNW)    
Max Wind Speed 15 mph    
Max Gust Speed 29 mph    
Visibility 9 miles    
Events Fog , Rain    
Averages and records for this station are not official NWS values.
T = Trace of Precipitation, MM = Missing Value Source: NWS Daily Summary

Daily Weather History Graph

Daily Weather History Graph

Search for Another Location

Airport or City:

Trip Planner

Search our weather history database for the weather conditions in past years. The results will help you decide how hot, cold, wet, or windy it might be!

Date:

Astronomy

Jun. 12, 2013 Rise Set
Actual Time 5:07 AM EDT 8:18 PM EDT
Civil Twilight 4:32 AM EDT 8:53 PM EDT
Nautical Twilight 3:48 AM EDT 9:37 PM EDT
Astronomical Twilight 2:56 AM EDT 10:30 PM EDT
Moon 8:46 AM EDT (6/12) 10:49 PM EDT (6/12)
Length of Visible Light 16h 20m
Length of Day
15h 11m
Waxing Crescent, 14% of the Moon is Illuminated
Jun 12
Waxing Crescent
Jun 16
First Quarter
Jun 23
Full
Jun 30
Last Quarter
Jul 8
New

Hourly Weather History & Observations

Time (EDT) Temp. Dew Point Humidity Pressure Visibility Wind Dir Wind Speed Gust Speed Precip Events Conditions
12:52 AM 55.0 °F 52.0 °F 89% 29.59 in 7.0 mi West 3.5 mph - N/A   Overcast
1:52 AM 55.0 °F 53.1 °F 93% 29.58 in 1.0 mi SW 3.5 mph - N/A   Mist
2:16 AM 55.4 °F 53.6 °F 94% 29.57 in 0.5 mi SW 5.8 mph - N/A Fog Fog
2:34 AM 55.4 °F 53.6 °F 94% 29.57 in 2.5 mi SW 3.5 mph - N/A   Overcast
2:36 AM 55.4 °F 53.6 °F 94% 29.57 in 4.0 mi SW 3.5 mph - N/A   Overcast
2:52 AM 57.0 °F 54.0 °F 89% 29.57 in 10.0 mi WSW 5.8 mph - N/A   Overcast
3:52 AM 59.0 °F 55.0 °F 87% 29.57 in 10.0 mi West 10.4 mph - N/A   Overcast
4:52 AM 59.0 °F 55.0 °F 87% 29.57 in 10.0 mi West 11.5 mph - N/A   Overcast
5:52 AM 59.0 °F 54.0 °F 83% 29.59 in 10.0 mi West 10.4 mph - N/A   Overcast
6:52 AM 60.1 °F 54.0 °F 80% 29.61 in 10.0 mi West 10.4 mph - N/A   Overcast
7:11 AM 60.8 °F 53.6 °F 77% 29.61 in 10.0 mi West 8.1 mph - N/A   Overcast
7:52 AM 60.1 °F 55.0 °F 83% 29.62 in 10.0 mi WNW 11.5 mph - N/A   Overcast
8:13 AM 60.8 °F 55.4 °F 82% 29.61 in 9.0 mi WNW 9.2 mph 18.4 mph N/A   Overcast
8:52 AM 64.0 °F 55.0 °F 73% 29.61 in 10.0 mi WNW 11.5 mph 19.6 mph N/A   Mostly Cloudy
9:52 AM 64.9 °F 54.0 °F 68% 29.61 in 10.0 mi WNW 12.7 mph 23.0 mph N/A   Overcast
10:18 AM 66.2 °F 53.6 °F 64% 29.61 in 10.0 mi NW 13.8 mph 23.0 mph N/A   Overcast
10:32 AM 64.4 °F 53.6 °F 68% 29.62 in 10.0 mi WNW 13.8 mph 23.0 mph N/A   Overcast
10:52 AM 66.9 °F 54.0 °F 63% 29.62 in 10.0 mi NW 15.0 mph 28.8 mph N/A   Mostly Cloudy
11:52 AM 66.9 °F 52.0 °F 59% 29.63 in 10.0 mi NW 12.7 mph 24.2 mph N/A   Overcast
12:52 PM 68.0 °F 51.1 °F 55% 29.64 in 10.0 mi NW 12.7 mph 25.3 mph N/A   Overcast
1:52 PM 69.1 °F 51.1 °F 53% 29.64 in 10.0 mi NW 13.8 mph 26.5 mph N/A   Overcast
2:52 PM 70.0 °F 53.1 °F 55% 29.65 in 10.0 mi WNW 15.0 mph 24.2 mph 0.00 in   Overcast
3:52 PM 70.0 °F 52.0 °F 53% 29.67 in 10.0 mi NNW 12.7 mph 25.3 mph N/A   Overcast
4:34 PM 62.6 °F 53.6 °F 72% 29.68 in 10.0 mi NNE 12.7 mph 21.9 mph N/A   Overcast
4:52 PM 62.1 °F 55.0 °F 78% 29.69 in 10.0 mi NNE 11.5 mph - 0.00 in Rain Light Rain
5:52 PM 63.0 °F 55.0 °F 75% 29.71 in 10.0 mi NNW 5.8 mph - 0.00 in   Overcast
6:52 PM 63.0 °F 55.0 °F 75% 29.74 in 10.0 mi WNW 5.8 mph - 0.00 in   Overcast
7:52 PM 62.1 °F 54.0 °F 75% 29.76 in 9.0 mi NW 8.1 mph - 0.00 in Rain Light Rain
8:52 PM 62.1 °F 53.1 °F 72% 29.78 in 10.0 mi NNW 8.1 mph - 0.00 in   Overcast
9:52 PM 61.0 °F 53.1 °F 75% 29.80 in 10.0 mi NW 3.5 mph - N/A   Overcast
10:52 PM 60.1 °F 54.0 °F 80% 29.81 in 10.0 mi Calm Calm - 0.00 in   Overcast
11:52 PM 60.1 °F 53.1 °F 78% 29.81 in 10.0 mi Calm Calm - N/A   Mostly Cloudy